Theta_e
323 323 322 320 320 319 317 316 312 307 307 311 312 317 319 320 321 319 318 322 322 320 319 318 318 319 319 319 319 319 318 317 316 317 318 320 322 325
322 322 321 320 318 317 316 315 314 311 308 313 314 316 317 317 319 318 318 321 320 319 319 319 317 317 317 318 317 317 318 317 317 317 317 318 320 320
320 319 317 318 316 317 316 314 313 313 309 311 313 314 313 314 315 316 318 316 317 318 318 317 316 315 315 315 316 316 316 316 316 316 316 316 316 317
316 316 315 315 315 316 314 314 313 312 309 306 309 310 310 311 312 312 313 315 316 318 317 316 314 314 313 313 313 313 312 312 312 313 314 314 315 315
314 314 314 313 313 314 314 311 310 310 309 307 305 308 309 310 309 310 311 312 314 317 315 314 313 312 312 312 312 311 310 309 308 308 310 311 312 313
312 313 313 313 312 311 310 308 308 306 305 304 304 305 306 308 308 306 305 309 307 311 313 312 313 313 312 313 313 314 310 308 306 306 306 306 307 308
309 312 313 313 311 308 305 305 304 303 303 304 304 305 305 305 304 305 303 304 304 306 308 310 311 311 311 313 316 316 311 309 307 305 305 304 303 304
308 310 311 312 307 305 305 305 304 301 301 303 304 303 303 302 302 300 300 298 297 307 306 305 310 308 309 311 312 308 308 307 306 306 305 304 304 303
306 307 306 307 300 299 301 303 306 307 306 304 300 301 300 301 300 298 298 298 298 303 304 303 308 306 309 313 310 308 308 306 305 304 304 304 303 301
305 305 305 303 296 295 297 301 306 306 303 301 301 302 303 302 301 300 299 300 302 305 307 302 307 306 309 311 311 309 306 306 305 304 304 303 301 301
300 298 297 295 293 293 296 297 301 300 301 302 301 299 298 297 299 300 297 295 294 297 305 304 306 306 308 309 314 310 307 307 306 305 304 302 301 300
297 298 296 294 292 292 294 294 295 296 295 299 298 297 299 299 299 298 295 290 289 293 307 303 304 304 302 307 311 311 311 310 306 305 303 303 300 308
294 295 297 294 292 292 292 294 296 294 295 297 297 295 295 294 294 294 293 291 289 290 298 299 303 304 303 303 308 308 310 310 313 315 305 301 300 304
291 293 294 293 292 292 292 294 292 293 297 297 295 293 291 290 291 291 291 291 292 292 295 298 299 304 303 302 301 305 309 312 313 313 314 305 301 302
291 292 292 291 292 293 295 294 295 295 294 293 292 290 290 290 290 289 289 290 291 293 298 301 303 307 305 302 302 304 306 308 311 312 312 313 315 315
293 293 295 294 293 295 296 296 295 295 293 292 290 288 288 288 287 287 286 287 288 292 296 300 302 305 306 305 305 305 309 305 309 311 312 313 317 319
290 296 294 294 293 293 294 294 294 294 292 292 288 286 285 285 285 286 286 286 286 288 290 295 300 303 306 304 305 306 305 304 307 310 312 311 314 317
293 291 291 291 291 291 291 291 292 293 292 291 287 286 285 284 284 285 286 287 287 288 290 293 296 298 302 298 300 298 300 304 310 311 311 309 308 308
291 291 290 290 290 291 291 291 290 292 291 290 288 286 285 285 284 285 287 287 287 288 290 294 296 302 303 301 295 295 292 299 308 304 302 302 304 297
291 290 290 290 291 290 290 290 290 290 288 288 287 287 286 285 284 286 286 286 287 289 293 298 300 307 307 304 300 296 292 295 303 302 299 298 295 296
290 290 291 291 290 291 290 289 289 288 287 286 286 287 286 285 285 287 286 286 287 290 291 295 303 293 305 303 299 295 296 294 295 295 299 302 302 301
290 291 291 291 290 291 289 288 287 286 285 284 285 286 285 286 287 287 286 286 287 289 292 296 308 309 303 299 295 295 295 295 295 295 295 295 301 302
290 291 291 290 290 291 288 286 286 284 283 283 284 285 285 286 289 288 287 287 287 288 290 293 304 301 298 296 293 292 291 291 291 289 290 294 295 295
Wind_Speed
4 5 3 4 5 5 6 6 7 8 8 9 10 11 5 8 11 11 12 14 16 17 18 17 19 18 18 19 19 19 19 18 19 21 22 22 21 21
3 4 4 4 5 4 4 5 7 8 8 7 9 11 13 11 14 13 12 17 17 14 18 18 17 19 19 17 19 20 19 19 17 19 21 21 19 22
5 5 5 6 6 4 4 6 6 7 9 9 9 12 14 13 14 13 11 12 10 14 18 19 20 18 20 18 19 20 21 21 19 19 20 21 20 22
6 6 6 6 6 5 3 5 6 7 7 12 12 11 13 13 14 15 12 12 11 15 18 20 21 14 15 18 19 20 22 21 21 21 20 20 20 21
8 6 5 7 5 3 4 5 6 6 7 9 12 10 11 11 12 13 13 13 10 20 17 16 17 15 19 21 22 19 20 21 22 21 20 20 20 21
10 9 7 5 6 6 5 6 6 7 8 9 10 11 10 11 10 11 11 9 13 11 17 16 19 19 18 16 21 21 19 21 20 20 20 20 19 21
11 9 4 6 11 9 5 7 9 8 8 9 10 10 10 10 11 9 11 12 13 11 10 8 8 9 11 14 16 16 11 17 17 20 20 18 17 20
8 5 5 6 9 11 12 12 13 10 11 8 9 10 13 12 11 11 11 10 9 5 6 12 9 11 10 10 11 4 7 10 12 12 16 16 17 18
7 6 6 7 10 9 11 16 15 8 3 7 10 10 15 13 13 14 12 11 11 11 10 12 8 11 9 10 6 6 8 9 8 10 14 17 17 17
8 8 7 7 10 11 11 10 10 10 9 8 10 13 12 13 11 11 13 13 10 10 9 7 9 10 10 10 10 5 8 9 10 12 14 15 15 14
9 6 7 8 11 12 10 10 11 9 10 11 13 17 16 13 11 9 9 10 10 11 9 8 5 8 7 9 7 4 9 10 13 13 12 10 10 9
9 2 8 10 11 12 9 9 9 10 11 12 11 13 14 14 17 11 9 9 10 8 2 6 7 5 3 6 5 4 6 9 15 12 9 9 6 4
7 7 6 11 13 15 11 8 9 10 12 10 8 9 11 11 10 10 11 9 9 10 13 7 7 6 3 5 6 7 5 9 8 7 6 5 7 5
6 6 8 13 17 19 13 11 16 9 6 8 8 10 13 12 12 12 13 12 10 15 17 14 8 6 5 7 7 6 8 8 6 7 4 3 2 2
4 9 17 17 16 14 10 10 9 8 9 10 9 11 13 13 15 14 14 15 14 14 11 13 11 9 5 6 7 9 8 4 6 7 3 3 2 2
11 10 8 10 12 7 8 7 7 8 9 10 8 13 12 12 12 12 13 13 13 9 11 11 12 11 7 7 7 9 6 4 8 8 3 3 0 2
10 5 7 7 7 7 7 8 8 9 10 10 9 13 13 13 12 12 11 11 10 12 14 12 11 9 6 3 4 5 6 9 7 4 2 2 3 3
8 8 8 8 9 9 9 9 10 11 11 10 9 12 12 13 14 13 11 10 11 11 12 11 10 8 2 4 8 4 4 5 2 2 2 1 3 6
7 7 7 8 9 9 9 10 11 10 13 11 10 11 12 12 16 13 12 12 12 12 12 10 9 6 4 4 4 16 3 4 2 2 4 3 3 4
8 7 7 8 9 9 10 11 10 11 12 12 12 12 12 13 14 14 13 13 14 13 12 10 7 7 4 2 2 2 14 4 3 2 2 2 3 7
8 8 8 8 9 9 10 11 12 11 12 13 12 13 13 13 13 14 14 18 16 12 13 14 10 7 3 1 2 2 2 12 14 5 3 2 2 2
8 8 8 9 10 9 11 11 11 12 13 12 13 13 13 13 12 15 15 15 15 13 12 13 9 3 4 4 3 3 3 4 9 21 24 3 3 2
8 8 8 9 10 9 11 12 12 12 13 12 13 13 14 14 12 13 14 14 13 14 14 13 10 3 5 4 4 6 9 10 7 12 15 22 26 29
Wind_Direction
318 275 260 308 301 349 339 337 322 314 315 324 311 312 326 341 315 316 306 302 301 295 288 292 291 280 273 271 267 264 267 269 273 276 278 278 277 278
295 347 321 342 340 323 320 331 324 311 301 306 307 319 315 318 307 305 294 297 296 290 293 289 280 280 279 265 258 259 264 266 263 264 270 271 269 278
359 4 343 328 305 314 329 306 289 300 301 301 301 302 310 305 313 305 304 307 299 304 299 290 282 273 279 269 253 253 259 263 261 258 260 263 263 268
348 341 326 317 301 322 326 319 321 320 313 302 300 304 307 308 302 313 316 306 301 297 296 297 286 276 283 285 270 254 255 257 260 259 258 259 258 258
340 328 303 298 310 342 320 326 325 309 308 308 302 300 303 307 309 306 304 306 299 302 293 293 304 293 288 282 277 255 252 251 251 250 252 254 255 254
321 314 323 19 0 341 347 336 316 317 305 293 295 297 301 306 300 303 305 303 307 314 295 289 289 284 278 282 272 271 265 255 247 240 241 248 248 250
302 305 27 8 40 44 7 335 315 296 292 292 298 302 308 313 315 321 308 313 305 297 285 290 300 301 300 292 291 291 301 278 249 238 240 238 246 252
301 356 351 11 28 8 343 325 288 282 282 290 308 313 317 328 316 315 309 309 309 275 328 294 297 293 287 285 289 306 328 315 288 262 254 247 240 243
14 2 353 14 24 350 333 311 294 303 262 330 321 322 310 316 311 308 305 296 286 289 293 293 297 286 290 288 245 334 318 303 291 278 268 256 245 232
352 11 27 9 19 348 321 318 330 344 14 344 314 301 303 312 302 299 301 291 291 279 262 279 306 293 296 292 252 284 294 314 298 291 280 263 250 235
354 36 44 21 354 340 335 337 330 335 337 308 320 323 300 301 304 316 325 325 317 306 298 281 272 305 309 288 274 293 312 309 298 293 290 275 256 235
338 135 68 17 346 341 340 324 325 334 331 335 341 336 330 335 335 341 327 314 315 297 335 332 306 305 294 289 301 324 331 302 313 293 299 291 232 211
337 346 336 330 327 316 305 290 295 307 304 302 329 335 334 332 324 324 320 311 296 275 288 312 305 293 256 288 297 322 301 314 311 306 281 287 249 277
325 314 309 318 315 306 305 283 304 312 310 328 338 339 336 329 325 322 315 302 279 272 286 280 269 268 275 288 290 309 304 300 305 314 320 319 251 246
274 286 293 293 287 291 308 332 353 357 350 340 351 341 335 327 325 321 319 312 301 292 280 290 283 266 254 269 286 290 296 299 302 327 298 280 270 176
334 313 292 276 280 302 348 7 8 357 358 335 1 342 330 332 330 329 323 323 317 313 311 313 312 306 267 250 261 278 300 299 313 315 286 275 350 70
322 15 11 12 10 6 359 11 360 1 359 348 359 342 335 333 332 330 322 320 316 315 320 321 316 299 295 317 279 293 311 297 283 289 272 9 72 74
28 16 15 6 11 2 3 0 359 3 1 351 352 339 331 332 330 327 324 324 319 317 308 305 310 319 171 67 22 325 291 287 331 347 22 143 70 17
26 22 15 6 7 5 358 2 356 4 358 347 345 333 330 329 333 328 331 328 325 316 306 302 297 285 285 278 140 52 325 292 349 45 12 32 72 12
18 20 14 8 8 4 4 1 355 2 356 348 341 337 334 331 333 336 337 331 326 320 317 316 302 283 261 306 82 92 23 352 323 44 79 22 53 153
14 6 15 10 10 5 10 1 359 1 354 346 339 338 336 332 331 337 336 337 329 333 328 325 300 313 71 128 72 54 42 39 38 12 340 69 89 67
13 1 15 14 11 10 16 359 359 357 351 345 336 339 333 332 334 339 340 339 340 333 325 324 338 6 49 43 39 28 40 24 27 37 36 16 30 83
16 4 14 14 10 17 21 358 1 353 346 341 333 336 329 332 342 339 335 337 336 335 343 334 326 51 33 30 45 49 53 43 43 52 44 41 72 82